Location: Clatteringshaws Loch
(55.0508°N, 4.2860°W)
Time: 21:41:44
(UTC+01:00)

Daily predictions for brighter satellites

Satellite Brightness Start Highest point End
(mag) Time Altitude Azimuth Time Altitude Azimuth Time Altitude Azimuth
ATLAS 3B R/B 2.9 22:13:42 10° SW 22:20:49 85° NW 22:27:39 10° NE
DNEPR-1 R/B 4.0 22:19:05 10° SW 22:23:35 81° NW 22:28:58 10° NE
H-2A R/B 2.5 22:20:05 10° S 22:24:59 59° WSW 22:30:03 10° NNW
Cosmos 1814 Rocket 4.0 22:20:01 10° SSW 22:25:15 71° ESE 22:30:36 10° NNE
Cosmos 1125 Rocket 3.6 22:21:42 10° NNW 22:27:01 88° ENE 22:32:16 10° SSE
Cosmos 1025 Rocket 4.1 22:24:53 10° SSE 22:28:40 29° E 22:32:29 10° NNE
USA 245 3.9 22:25:09 10° S 22:28:55 66° WSW 22:33:45 10° NNW
Cosmos 1455 Rocket 3.8 22:25:10 10° NNW 22:29:24 51° W 22:33:39 10° S
DMSP B5D2-2 4.3 22:28:23 10° NNE 22:33:37 54° E 22:38:47 10° S
Cosmos 1515 3.7 22:34:04 10° S 22:37:53 69° E 22:41:44 10° NNE
Abrixas rocket 3.6 22:35:46 10° SW 22:38:13 20° SSE 22:40:41 10° ESE
ISS -3.3 22:35:24 10° WSW 22:38:28 38° SSE 22:41:33 10° E
Cosmos 292 Rocket 3.8 22:34:33 10° SSW 22:39:15 65° ESE 22:44:00 10° NNE
CZ-4C R/B 2.9 22:32:50 10° NW 22:39:39 79° SW 22:47:29 10° SE
Iridium 90 3.4 22:38:36 10° S 22:40:47 56° E 22:42:54 10° NNE
Cosmos 1356 3.4 22:38:06 10° S 22:41:34 81° ESE 22:45:05 10° NNE
Cosmos 1340 Rocket 3.0 22:41:45 10° SSW 22:45:50 78° WNW 22:49:57 10° NNE
Meteor 1-29 3.9 22:43:51 10° NNE 22:47:04 33° E 22:50:14 10° SSE
Cosmos 1975 Rocket 4.5 22:43:23 10° SW 22:47:28 39° WNW 22:51:34 10° N
Cosmos 2219 4.5 22:43:46 10° SSE 22:48:08 23° ESE 22:52:31 10° NE
Cosmos 1174 3.9 22:46:34 10° NW 22:49:30 46° NE 22:52:31 10° ESE
Helios 1A 3.8 22:52:57 10° S 22:56:59 48° W 23:01:04 10° NNW
USA 238 DEB 4.4 22:53:18 10° WSW 23:00:09 61° NNW 23:07:10 10° NE
USA 238 4.4 22:53:24 10° WSW 23:00:15 61° NNW 23:07:16 10° NE
Cosmos 1092 Rocket 4.1 22:53:56 10° N 23:00:20 82° ENE 23:06:42 10° SSE
Cosmos 2084 Rocket 3.5 22:57:20 10° NW 23:01:26 68° NE 23:05:22 10° ESE
Cosmos 2360 Rocket 3.5 22:57:38 10° NW 23:02:38 33° WSW 23:07:38 10° S
H-2A R/B 4.3 23:00:27 10° E 23:03:03 16° NE 23:05:39 10° NNE
Nadezhda 4 Rocket 4.3 22:56:52 10° NNW 23:03:09 73° W 23:09:27 10° S
CZ-2C R/B 3.6 23:00:29 10° NNE 23:05:34 33° E 23:10:13 12° SSE
Cosmos 1766 3.8 23:01:49 10° N 23:05:42 49° ENE 23:09:07 13° SSE
SL-23 DEB 4.3 23:02:13 10° WSW 23:05:52 57° S 23:11:46 10° ESE
Iridium 40 3.9 23:04:18 11° S 23:06:29 86° W 23:08:54 10° N
Cosmos 2219 Rocket 2.2 23:01:39 10° NW 23:07:16 80° WSW 23:12:27 12° SSE
Okean 2 3.4 23:03:19 10° S 23:07:29 77° E 23:11:41 10° NNE
Cosmos 2084 3.3 23:04:05 10° SW 23:08:17 89° NNW 23:12:17 10° NE
SJ 16-02 2.6 23:05:38 10° NW 23:09:41 35° WSW 23:13:43 10° S
ERBS 2.3 23:07:17 10° WNW 23:10:41 88° NNE 23:14:04 10° ESE
Cosmos 540 Rocket 3.5 23:11:08 10° SSW 23:16:18 83° ESE 23:21:32 10° NNE
USA 234 3.2 23:10:22 10° ENE 23:16:57 70° SSE 23:23:29 10° SW
Okean 1-7 Rocket 4.0 23:13:40 12° SSE 23:17:44 49° E 23:22:08 10° NNE
Cosmos 1544 3.2 23:15:03 10° NNW 23:18:47 78° W 23:22:01 13° S
Cosmos 2228 3.3 23:14:39 10° N 23:18:53 55° ENE 23:22:25 14° SSE
Cosmos 1356 Rocket 3.5 23:15:26 10° S 23:19:42 77° ESE 23:24:02 10° NNE
Helios 1B rocket 2.5 23:15:51 10° NNE 23:20:02 90° N 23:24:11 10° SSW
SAR-Lupe-4 3.9 23:17:33 14° SE 23:20:27 56° ENE 23:24:00 10° N
Cosmos 1536 Rocket 4.4 23:16:24 10° SSW 23:20:45 53° WNW 23:25:11 10° N
Cosmos 1726 Rocket 3.6 23:17:52 10° N 23:22:17 73° ENE 23:26:01 14° SSE
Cosmos 2333 Rocket 2.4 23:23:05 10° NW 23:28:45 65° WSW 23:33:38 14° SSE
NOSS 0 Rocket 4.0 23:23:07 10° NW 23:29:23 77° WSW 23:34:48 14° SSE
Cosmos 841 Rocket 4.3 23:24:14 10° SW 23:29:24 56° WNW 23:34:39 10° NNE
Cosmos 2026 Rocket 4.0 23:23:58 10° N 23:30:13 86° E 23:35:40 14° S
NOSS 3-2 (A) 4.3 23:25:04 10° WSW 23:31:17 60° NNW 23:38:21 10° NE
COSMOS 2428 3.5 23:26:19 10° NW 23:31:41 44° WSW 23:36:36 12° S
Cosmos 1655 Rocket 4.2 23:26:23 10° N 23:32:47 66° ENE 23:38:14 14° SSE
SL-16 R/B 2.9 23:27:58 10° NNW 23:33:30 49° NE 23:39:00 10° ESE
SPOT 5 4.4 23:32:13 10° SSW 23:36:00 27° W 23:39:58 10° NW
Cosmos 2058 Rocket 3.2 23:31:35 10° N 23:36:08 73° ENE 23:39:42 16° SSE
NOSS 3-2 (C) 4.1 23:30:53 10° WSW 23:37:06 66° NNW 23:44:12 10° NE
SAR-Lupe-1 4.1 23:35:45 17° SSE 23:38:25 74° ENE 23:42:02 10° NNW
Cosmos 2279 Rocket 4.3 23:36:31 14° SSE 23:41:40 52° E 23:47:41 10° NNE
Terra 2.7 23:37:21 10° S 23:41:51 43° W 23:46:25 10° NNW
Cosmos 1805 3.2 23:38:14 10° N 23:42:12 81° ENE 23:45:07 18° SSE
CZ-2C R/B 3.6 23:38:09 12° S 23:43:07 60° W 23:48:46 10° NNW
Cosmos 1980 3.7 23:37:41 10° NW 23:43:22 78° WSW 23:47:59 16° SSE
Cosmos 1470 3.8 23:42:59 10° N 23:46:37 35° ENE 23:49:25 15° SE
Cosmos 1842 3.8 23:45:26 18° SSE 23:48:04 44° E 23:51:49 10° NNE
Cosmos 2142 Rocket 4.5 23:45:47 12° S 23:51:29 78° E 23:57:46 10° NNE
